Regional Weather Roundup
Issued by NWS Kansas City/Pleasant Hill, MO

Home | Current Version | Previous Version | Graphics & Text | Print | Product List | Glossary Off
Versions: 1 2 3 4 5 6 7 8 9 10 11 12 13 14 15 16 17 18 19 20 21 22 23 24 25 26 27

000
ASUS43 KEAX 240410
RWREAX

WEATHER ROUNDUP FOR EASTERN KANSAS AND NORTHWEST MISSOURI
NATIONAL WEATHER SERVICE KANSAS CITY/PLEASANT HILL MO
1100 PM CDT THU MAR 23 2017

KSZ040-057-103>105-MOZ028-029-037-043-240500-
...KANSAS CITY METROPOLITAN AREA...

CITY           SKY/WX    TMP DP  RH WIND       PRES   REMARKS
K.C. INTL      CLOUDY    70  46  42 S21G30    29.79S
K.C. DOWNTOWN  CLOUDY    72  46  39 S15       29.80R
LEES SUMMIT    PTCLDY    70  46  42 S16G25    29.82R
OLATHE - IXD   PTCLDY    68  47  46 S21G28    29.79S
OLATHE - OJC   CLOUDY    68  48  48 S18G26    29.80R
LAWRENCE       PTCLDY    69  48  47 SE16      29.77S

$$

MOZ001>008-011>017-020>025-030>033-038>040-044>046-053-054-240500-
...NORTHERN AND CENTRAL MISSOURI...

CITY           SKY/WX    TMP DP  RH WIND       PRES   REMARKS
ST. JOSEPH     MOCLDY    70  47  43 S18       29.77R
MOSBY          PTCLDY    72  43  35 S14G22    29.81R
WARRENSBURG    CLOUDY    68  43  40 S14       29.83S
WHITEMAN AFB   CLEAR     68  47  46 S15       29.84R
CLINTON        CLOUDY    68  46  45 S13G21    29.86R
SEDALIA        PTCLDY    71  49  45 S23       29.87S
WARSAW         NOT AVBL
CHILLICOTHE      N/A     69  49  48 S9        29.83R
KIRKSVILLE     PTCLDY    52  32  46 S9        29.86R

$$

MOZ041-047>049-056>058-063>065-088>090-097-240500-
...EASTERN AND SOUTHERN MISSOURI...

CITY           SKY/WX    TMP DP  RH WIND       PRES   REMARKS
ST. LOUIS INTL CLEAR     59  44  57 S14       30.00F
SPIRIT OF STL  CLEAR     61  47  59 S8        29.98F
COLUMBIA       CLEAR     67  51  56 SE18G30   29.90S
JEFFERSON CITY CLEAR     70  50  49 SE16      29.91F
ROLLA          CLEAR     64  51  62 S17G28    29.95F
OSAGE BEACH    CLEAR    N/A N/A N/A S14G23    29.92F
SPRINGFIELD    CLEAR     67  52  58 S21       29.90F
JOPLIN         CLEAR     70  49  47 S18G24    29.85S
WEST PLAINS    CLEAR     63  51  65 SE7       30.05R

$$

IAZ060-094-KSZ022-034>040-054-083-096-NEZ052-066-093-240500-
...KANSAS...SOUTHEAST NEBRASKA AND IOWA...

CITY           SKY/WX    TMP DP  RH WIND       PRES   REMARKS
TOPEKA         CLOUDY    70  50  49 S21G28    29.74S
MANHATTAN      MOCLDY    71  52  50 S20G26    29.68F
EMPORIA        MOCLDY    70  52  52 S21       29.74S
CHANUTE        CLOUDY    69  50  50 SE17      29.81R
WICHITA        MOCLDY    72  48  42 S25G33    29.69F
OMAHA          CLOUDY    71  49  45 S33G44    29.61F
LINCOLN        CLOUDY    70  50  49 S31G41    29.60R
FALLS CITY     MOCLDY    70  47  43 S16       29.72R
LAMONI         PTCLDY    68  47  46 S20G26    29.77S
DES MOINES     CLOUDY    56  40  55 SE12      29.77R

$$





USA.gov is the U.S. government's official web portal to all federal, state and local government web resources and services.